Terug naar catalogus

STARLINK-32076

ActiefCommunicatieVLEO
NORAD 60350·PAYLOAD·🇺🇸 United States

Gelanceerd Aug 2, 2024 vanaf Cape Canaveral Space Force Station

Loading…

Volgende Passages (komende 24 uur)

TLE

VersSource: CelesTrak SupGP

Epoch: Sep 15, 2026, 02:27 UTC

1 60350C 24136X   26258.10256944 -.00000150  00000+0 -48256-5 0  2589
2 60350  53.1568 274.2847 0001393  97.1214  13.4576 15.31732653    11

Volg STARLINK-32076 in realtime met AllMySat

Download on the App Store